Back to catalog

STARLINK-11081

AliveCommunicationsVLEO
NORAD 60405·PAYLOAD·🇺🇸 United States

Launched Aug 10, 2024 from Cape Canaveral Space Force Station

Loading…

Next Passes (next 24 hours)

TLE

FreshSource: CelesTrak SupGP

Epoch: Sep 14, 2026, 14:53 UTC

1 60405C 24141H   26257.62062500 -.00022364  00000+0 -18425-3 0  2578
2 60405  53.1575 235.1382 0001276  86.6263 264.0574 15.69716156    10

Track STARLINK-11081 in real time with AllMySat

Download on the App Store